Location: Moy Burn
(57.3833°N, 4.0667°W)
Time: 10:09:23
(UTC+00:00)

Cosmos 921 Rocket - Pass Details

Date: 08 August 2020
Orbit: 572 x 631 km, 75.8° (Epoch: 18 September)

Event Time Altitude Azimuth Distance (km) Brightness Sun altitude
Rises 21:24:17 0° 333° (NNW) 2,837 8.2 -8.1°
Reaches altitude 10° 21:26:32 10° 334° (NNW) 1,923 7.0 -8.3°
Maximum altitude 21:30:49 87° 245° (WSW) 589 3.0 -8.7°
Enters shadow 21:34:52 11° 157° (SSE) 1,827 4.9 -9.1°
